Home   Weather   Darmstadt   Past weeks

Flag for Germany Past Weather in Darmstadt, Hesse, Germany — Yesterday and Last 2 Weeks

Now
39 °F

Passing clouds.


Feels Like: 36 °F
Forecast: 35 / 49 °F
Wind: 5 mph from West

Location: Frankfurt-M-Flughafen Airport

Current Time: Feb 24, 2017 at 8:43:11 pm

Latest Report: Feb 24, 2017 at 7:50 pm


Visibility: N/A

Pressure: 30.07 "Hg

Humidity: 61%

Dew Point: 27 °F

Location of DarmstadtLocation

Past Weather in Darmstadt — Graph

°F

Darmstadt Temperature Yesterday

Maximum temperature yesterday: 52 °F (at 1:50 pm)
Minimum temperature yesterday: 48 °F (at 8:20 pm)
Average temperature yesterday: 50 °F

High & Low Weather Summary for the Past Weeks

 TemperatureHumidityPressure
High54 °F (Feb 16, 2:20 pm)100% (Feb 16, 3:50 am)30.60 "Hg (Feb 16, 3:50 am)
Low25 °F (Feb 15, 6:20 am)40% (Feb 14, 3:20 pm)29.42 "Hg (Feb 23, 5:20 pm)
Average42 °F75%30.17 "Hg
* Reported Feb 9 7:20 pm — Feb 24 7:20 pm, Darmstadt, Weather by CustomWeather, © 2017

Note: Actual official high and low records may vary slightly from our data, if they occured in-between our weather recording intervals... More about our weather records

Advertising

Darmstadt Weather History for the Previous 24 Hours

Scroll right to see more
 ConditionsComfort  
Time TempWeatherWind HumidityBarometerVisibility
7:20 pm
Fri, Feb 24
43 °FPassing clouds.5 mph53%30.04 "HgN/A
6:50 pm43 °FPassing clouds.7 mph53%30.04 "HgN/A
6:20 pm43 °FPassing clouds.6 mph53%30.01 "HgN/A
5:50 pm43 °FScattered clouds.9 mph49%30.01 "HgN/A
5:20 pm45 °FPassing clouds.13 mph46%29.98 "HgN/A
4:50 pm45 °FScattered showers. Scattered clouds.10 mph46%29.98 "HgN/A
4:20 pm46 °FScattered showers. Scattered clouds.10 mph46%29.95 "HgN/A
3:50 pm46 °FScattered showers. Partly sunny.10 mph43%29.95 "HgN/A
3:20 pm46 °FScattered showers. Broken clouds.8 mph43%29.95 "HgN/A
2:50 pm46 °FBroken clouds.10 mph46%29.95 "HgN/A
2:20 pm46 °FScattered clouds.10 mph43%29.92 "HgN/A
1:50 pm46 °FScattered clouds.14 mph46%29.92 "HgN/A
1:20 pm46 °FScattered clouds.14 mph46%29.92 "HgN/A
12:50 pm48 °FScattered clouds.16 mph43%29.92 "HgN/A
12:20 pm46 °FScattered clouds.14 mph50%29.89 "HgN/A
11:50 am46 °FScattered clouds.12 mph53%29.89 "HgN/A
11:20 am45 °FScattered clouds.12 mph57%29.89 "HgN/A
10:50 am43 °FScattered clouds.12 mph61%29.89 "HgN/A
10:20 am43 °FPartly sunny.12 mph66%29.86 "HgN/A
9:50 am43 °FPartly sunny.18 mph61%29.86 "HgN/A
9:20 am43 °FPartly sunny.16 mph66%29.83 "HgN/A
8:50 am41 °FPartly sunny.15 mph70%29.83 "HgN/A
8:20 am39 °FScattered clouds.20 mph81%29.80 "HgN/A
7:50 am39 °FScattered clouds.12 mph81%29.80 "HgN/A
7:20 am39 °FSprinkles. Broken clouds.14 mph81%29.80 "HgN/A
6:50 am39 °FSprinkles. Passing clouds.12 mph81%29.77 "HgN/A
6:20 am41 °FSprinkles. Partly cloudy.22 mph76%29.74 "HgN/A
5:50 am43 °FSprinkles. Partly cloudy.17 mph66%29.74 "HgN/A
5:20 am43 °FSprinkles. Passing clouds.15 mph66%29.71 "HgN/A
4:50 am43 °FScattered showers. Passing clouds.15 mph66%29.71 "HgN/A
4:20 am45 °FPassing clouds.15 mph61%29.68 "HgN/A
3:50 am45 °FPassing clouds.15 mph61%29.65 "HgN/A
3:20 am45 °FScattered showers. Passing clouds.18 mph61%29.65 "HgN/A
2:50 am45 °FPassing clouds.22 mph61%29.62 "HgN/A
2:20 am45 °FPassing clouds.23 mph66%29.59 "HgN/A
1:50 am46 °FScattered showers. Passing clouds.24 mph62%29.56 "HgN/A
1:20 am46 °FSprinkles. Passing clouds.25 mph57%29.53 "HgN/A
12:50 am46 °FScattered showers. Passing clouds.28 mph57%29.50 "HgN/A
12:20 am48 °FPassing clouds.24 mph54%29.50 "HgN/A
11:50 pm
Thu, Feb 23
48 °FPassing clouds.26 mph54%29.50 "HgN/A
11:20 pm48 °FPassing clouds.25 mph54%29.50 "HgN/A
10:50 pm48 °FPassing clouds.18 mph58%29.50 "HgN/A
10:20 pm48 °FSprinkles. Passing clouds.20 mph58%29.47 "HgN/A
9:50 pm48 °FLight rain. Passing clouds.22 mph58%29.47 "HgN/A
9:20 pm48 °FLight rain. Partly cloudy.25 mph62%29.47 "HgN/A
8:50 pm48 °FClear.16 mph62%29.45 "Hg10 mi
8:20 pm48 °FPassing clouds.23 mph62%29.45 "HgN/A
Weather by CustomWeather, © 2017

See weather overviewHow to use our weather pages